Home   Weather   Truro   Past weeks

Flag for United Kingdom Past Weather in Truro, England, United Kingdom — Yesterday and Last 2 Weeks

Now
54 °F

Fog.


Feels Like: 49 °F
Forecast: 53 / 56 °F
Wind: 17 mph from South

Location: Culdrose

Current Time: Dec 9, 2016 at 12:20:00 am

Latest Report: Dec 8, 2016 at 11:50 pm


Visibility: 1 mi

Pressure: 30.27 "Hg

Humidity: 100%

Dew Point: 54 °F

Location of TruroLocation

Past Weather in Truro — Graph

°F

Truro Temperature Yesterday

Maximum temperature yesterday: 55 °F (at 12:50 am)
Minimum temperature yesterday: 54 °F (at 2:50 am)
Average temperature yesterday: 54 °F

High & Low Weather Summary for the Past Weeks

 TemperatureHumidityPressure
High55 °F (Nov 24, 11:50 am)100% (Nov 26, 5:50 am)30.54 "Hg (Nov 26, 5:50 am)
Low34 °F (Nov 29, 10:50 pm)57% (Nov 28, 5:50 pm)30.01 "Hg (Nov 23, 10:50 pm)
Average47 °F87%30.21 "Hg
* Reported Nov 23 10:50 pm — Dec 8 10:50 pm, Truro, Weather by CustomWeather, © 2016

Note: Actual official high and low records may vary slightly from our data, if they occured in-between our weather recording intervals... More about our weather records

Advertising

Truro Weather History for the Previous 24 Hours

Scroll right to see more
 ConditionsComfort  
Time TempWeatherWind HumidityBarometerVisibility
10:50 pm
Thu, Dec 8
54 °FFog.18 mph100%30.27 "Hg0 mi
9:50 pm54 °FFog.16 mph100%30.27 "Hg0 mi
8:50 pm54 °FFog.14 mph100%30.27 "Hg0 mi
7:50 pm55 °FFog.15 mph100%30.27 "Hg0 mi
6:50 pm55 °FDrizzle. Dense fog.13 mph100%30.27 "Hg0 mi
5:50 pm54 °FDrizzle. Dense fog.12 mph100%30.27 "Hg0 mi
4:50 pm54 °FDrizzle. Dense fog.8 mph100%30.24 "Hg0 mi
3:50 pm54 °FFog.8 mph100%30.24 "Hg0 mi
2:50 pm55 °FFog.8 mph100%30.24 "Hg0 mi
1:50 pm55 °FDrizzle. Dense fog.8 mph100%30.24 "Hg0 mi
12:50 pm54 °FDrizzle. Low clouds.6 mph100%30.24 "Hg0 mi
11:50 am54 °FDrizzle. Low clouds.9 mph100%30.27 "Hg0 mi
10:50 am54 °FDrizzle. Low clouds.8 mph100%30.27 "Hg0 mi
9:50 am54 °FDrizzle. Low clouds.8 mph100%30.24 "Hg0 mi
8:50 am55 °FDrizzle. Low clouds.14 mph94%30.24 "Hg1 mi
7:50 am54 °FDrizzle. Low clouds.16 mph100%30.21 "Hg1 mi
6:50 am54 °FPartly cloudy.18 mph100%30.21 "Hg1 mi
5:50 am55 °FFog.20 mph94%30.18 "Hg2 mi
4:50 am55 °FFog.20 mph94%30.18 "Hg2 mi
3:50 am55 °FFog.21 mph94%30.18 "Hg2 mi
2:50 am54 °FLow clouds.20 mph100%30.21 "Hg1 mi
1:50 am55 °FFog.22 mph100%30.21 "Hg1 mi
12:50 am55 °FFog.20 mph100%30.21 "Hg1 mi
Weather by CustomWeather, © 2016

See weather overviewHow to use our weather pages